WXM80 ListenWXM80 Stop

You find our weather info also at:

UK Metoffice

WeatherCloud

Weather Underground

Northeastern Weather Network

AWEKAS

Citizen Weather Observer Program (CWOP)

HAMweather, WeatherForYou, PWS Weather


Weather Underground History page Text

Daily Summary for April 23, 2017 Units:  English    Metric   Both
« Previous Day
Next Day »
Daily Weekly Monthly Yearly Custom
  High: Low: Average:
Temperature: 65.8 °F 44.2 °F 53.1 °F
Dew Point: 47.0 °F 40.6 °F 43.1 °F
Humidity: 90 % 42 % 71 %
Wind Speed: 8.2 mph 0.0 mph 1.6 mph
Wind Gust: 11.5 mph - -
Wind:- - South
Pressure: 30.11 in 29.97 in -
Precipitation: 0.00 in    
Historical Graphs
 
 
Tabular Data for April 23, 2017
Time Temperature Dew Point Pressure Wind Wind Speed Wind Gust Humidity Rainfall Rate (Hourly)
00:02 49.4 °F 44.1 °F 29.97 in NW 1.3 mph 3.5 mph 82 % 0.00 in
00:08 49.4 °F 44.1 °F 29.97 in NW 2.7 mph 4.6 mph 82 % 0.00 in
00:13 49.4 °F 44.1 °F 29.97 in NNE 2.6 mph 10.0 mph 82 % 0.00 in
00:18 49.3 °F 43.7 °F 29.97 in North 2.7 mph 4.6 mph 81 % 0.00 in
00:23 49.2 °F 43.6 °F 29.98 in North 3.0 mph 8.1 mph 81 % 0.00 in
00:28 49.1 °F 43.8 °F 29.99 in NNE 0.6 mph 4.6 mph 82 % 0.00 in
00:33 49.1 °F 43.8 °F 29.99 in North 0.7 mph 2.3 mph 82 % 0.00 in
00:38 49.0 °F 43.7 °F 29.99 in Calm   2.3 mph 82 % 0.00 in
00:43 48.9 °F 43.6 °F 29.99 in Calm     82 % 0.00 in
00:48 48.7 °F 43.5 °F 29.98 in NW 0.6 mph 3.5 mph 82 % 0.00 in
00:53 48.6 °F 43.7 °F 29.99 in NNW 1.0 mph 5.0 mph 83 % 0.00 in
00:58 48.4 °F 43.5 °F 29.98 in NE 1.2 mph 2.3 mph 83 % 0.00 in
01:03 48.3 °F 43.4 °F 29.99 in NNW 1.4 mph 3.5 mph 83 % 0.00 in
01:08 48.2 °F 43.3 °F 29.99 in NNW 0.6 mph 4.6 mph 83 % 0.00 in
01:13 48.0 °F 43.4 °F 29.99 in Calm   3.5 mph 84 % 0.00 in
01:18 47.9 °F 43.3 °F 29.99 in NW 0.6 mph 2.3 mph 84 % 0.00 in
01:23 47.8 °F 43.2 °F 29.99 in NW 0.7 mph 2.3 mph 84 % 0.00 in
01:28 47.7 °F 43.1 °F 29.99 in NNW 1.5 mph 3.5 mph 84 % 0.00 in
01:33 47.6 °F 43.0 °F 30.00 in NE 1.4 mph 3.5 mph 84 % 0.00 in
01:38 47.5 °F 43.2 °F 29.99 in NE 1.1 mph 2.3 mph 85 % 0.00 in
01:43 47.4 °F 42.8 °F 29.99 in Calm   1.2 mph 84 % 0.00 in
01:48 47.3 °F 43.0 °F 29.99 in NW 0.3 mph 2.3 mph 85 % 0.00 in
01:53 47.1 °F 42.8 °F 29.99 in NNE 1.3 mph 3.5 mph 85 % 0.00 in
01:58 47.0 °F 42.7 °F 29.99 in North 0.2 mph 1.2 mph 85 % 0.00 in
02:03 46.9 °F 42.6 °F 29.98 in North 3.0 mph 4.6 mph 85 % 0.00 in
02:08 46.9 °F 42.6 °F 29.98 in North 1.8 mph 3.5 mph 85 % 0.00 in
02:13 46.8 °F 42.8 °F 29.99 in Calm   1.2 mph 86 % 0.00 in
02:19 46.7 °F 42.7 °F 29.98 in North 0.2 mph 1.2 mph 86 % 0.00 in
02:24 46.6 °F 42.6 °F 29.98 in NNW 0.6 mph 2.3 mph 86 % 0.00 in
02:29 46.5 °F 42.5 °F 29.99 in Calm   2.3 mph 86 % 0.00 in
02:34 46.5 °F 42.5 °F 29.98 in Calm   1.2 mph 86 % 0.00 in
02:39 46.5 °F 42.5 °F 29.99 in NW 0.7 mph 2.3 mph 86 % 0.00 in
02:44 46.4 °F 42.4 °F 29.99 in NW 0.1 mph 1.0 mph 86 % 0.00 in
02:49 46.4 °F 42.4 °F 29.99 in NW 1.2 mph 3.5 mph 86 % 0.00 in
02:54 46.3 °F 42.3 °F 29.99 in NW 0.6 mph 2.3 mph 86 % 0.00 in
03:04 46.1 °F 42.1 °F 29.99 in NW 0.1 mph 2.3 mph 86 % 0.00 in
03:09 46.0 °F 42.0 °F 30.00 in NW 0.2 mph 1.0 mph 86 % 0.00 in
03:14 45.8 °F 42.2 °F 30.00 in NW 0.4 mph 1.2 mph 87 % 0.00 in
03:19 45.7 °F 42.1 °F 30.00 in NW 1.1 mph 2.3 mph 87 % 0.00 in
03:24 45.5 °F 41.9 °F 30.00 in NW 0.7 mph 2.3 mph 87 % 0.00 in
03:34 45.4 °F 42.1 °F 30.00 in Calm   1.2 mph 88 % 0.00 in
03:39 45.3 °F 42.0 °F 30.00 in Calm   1.0 mph 88 % 0.00 in
03:44 45.1 °F 41.8 °F 30.00 in Calm   1.2 mph 88 % 0.00 in
03:49 45.0 °F 41.7 °F 30.00 in NW 0.4 mph 2.3 mph 88 % 0.00 in
03:54 44.9 °F 41.9 °F 30.00 in Calm   1.2 mph 89 % 0.00 in
03:59 44.8 °F 41.5 °F 29.99 in Calm   1.2 mph 88 % 0.00 in
04:04 44.7 °F 41.7 °F 30.00 in NW 0.3 mph 1.2 mph 89 % 0.00 in
04:09 44.6 °F 41.6 °F 30.00 in NW 0.1 mph 1.2 mph 89 % 0.00 in
04:14 44.5 °F 41.5 °F 30.01 in NW 0.1 mph 1.2 mph 89 % 0.00 in
04:19 44.5 °F 41.5 °F 30.00 in Calm   1.2 mph 89 % 0.00 in
04:24 44.4 °F 41.7 °F 30.02 in WNW 0.1 mph 2.0 mph 90 % 0.00 in
04:29 44.4 °F 41.7 °F 30.02 in Calm     90 % 0.00 in
04:34 44.4 °F 41.7 °F 30.02 in NNW 1.4 mph 2.3 mph 90 % 0.00 in
04:39 44.3 °F 41.6 °F 30.02 in NW 0.5 mph 2.3 mph 90 % 0.00 in
04:44 44.3 °F 41.6 °F 30.01 in NW 0.3 mph 2.3 mph 90 % 0.00 in
04:49 44.4 °F 41.7 °F 30.01 in North 1.2 mph 3.5 mph 90 % 0.00 in
04:54 44.4 °F 41.7 °F 30.02 in NNW 0.3 mph 2.0 mph 90 % 0.00 in
04:59 44.4 °F 41.7 °F 30.01 in Calm   1.2 mph 90 % 0.00 in
05:04 44.5 °F 41.7 °F 30.02 in NNW 0.1 mph 1.2 mph 90 % 0.00 in
05:09 44.5 °F 41.7 °F 30.02 in Calm   1.2 mph 90 % 0.00 in
05:14 44.5 °F 41.7 °F 30.02 in NNW 1.4 mph 3.5 mph 90 % 0.00 in
05:19 44.5 °F 41.7 °F 30.02 in North 1.6 mph 2.3 mph 90 % 0.00 in
05:24 44.5 °F 41.7 °F 30.03 in Calm   1.2 mph 90 % 0.00 in
05:29 44.6 °F 41.8 °F 30.03 in NNE 0.4 mph 3.0 mph 90 % 0.00 in
05:34 44.6 °F 41.8 °F 30.03 in North 1.6 mph 3.5 mph 90 % 0.00 in
05:40 44.6 °F 41.8 °F 30.03 in North 3.1 mph 5.8 mph 90 % 0.00 in
05:45 44.6 °F 41.8 °F 30.03 in NNE 2.8 mph 3.5 mph 90 % 0.00 in
05:50 44.6 °F 41.8 °F 30.03 in NNE 2.3 mph 3.5 mph 90 % 0.00 in
05:55 44.6 °F 41.8 °F 30.03 in NNE 1.3 mph 2.3 mph 90 % 0.00 in
06:00 44.6 °F 41.8 °F 30.03 in Calm   1.0 mph 90 % 0.00 in
06:05 44.6 °F 41.8 °F 30.04 in NNE 1.5 mph 3.5 mph 90 % 0.00 in
06:10 44.5 °F 41.7 °F 30.04 in North 1.6 mph 3.5 mph 90 % 0.00 in
06:15 44.5 °F 41.7 °F 30.05 in NNE 3.4 mph 4.6 mph 90 % 0.00 in
06:20 44.4 °F 41.4 °F 30.05 in NNE 0.6 mph 3.5 mph 89 % 0.00 in
06:25 44.4 °F 41.4 °F 30.05 in NNW 1.4 mph 2.3 mph 89 % 0.00 in
06:30 44.3 °F 41.3 °F 30.05 in NNE 0.1 mph 1.2 mph 89 % 0.00 in
06:35 44.3 °F 41.3 °F 30.05 in NNE 0.4 mph 3.5 mph 89 % 0.00 in
06:40 44.3 °F 41.3 °F 30.06 in NNE 2.5 mph 4.6 mph 89 % 0.00 in
06:45 44.2 °F 41.2 °F 30.07 in NNE 3.0 mph 5.0 mph 89 % 0.00 in
06:50 44.2 °F 41.2 °F 30.07 in North 1.9 mph 3.5 mph 89 % 0.00 in
06:55 44.2 °F 41.2 °F 30.07 in North 1.4 mph 3.5 mph 89 % 0.00 in
07:00 44.2 °F 41.2 °F 30.07 in NNE 2.8 mph 3.5 mph 89 % 0.00 in
07:05 44.5 °F 41.7 °F 30.06 in North 2.5 mph 3.5 mph 90 % 0.00 in
07:10 44.8 °F 42.0 °F 30.07 in North 1.7 mph 3.5 mph 90 % 0.00 in
07:20 45.7 °F 42.9 °F 30.08 in NNE 1.6 mph 2.3 mph 90 % 0.00 in
07:25 46.3 °F 43.2 °F 30.08 in NE 2.5 mph 4.6 mph 89 % 0.00 in
07:30 46.8 °F 43.7 °F 30.08 in NNE 3.5 mph 4.6 mph 89 % 0.00 in
07:35 47.3 °F 43.6 °F 30.08 in NNE 1.7 mph 2.3 mph 87 % 0.00 in
07:40 47.8 °F 43.8 °F 30.08 in NNE 0.7 mph 3.5 mph 86 % 0.00 in
07:42 48.1 °F 44.1 °F 30.09 in North 2.6 mph 4.6 mph 86 % 0.00 in
07:47 48.4 °F 43.5 °F 30.09 in NNE 2.0 mph 3.5 mph 83 % 0.00 in
07:52 48.8 °F 43.9 °F 30.09 in NNE 3.1 mph 5.0 mph 83 % 0.00 in
07:57 49.1 °F 43.8 °F 30.09 in NNE 3.0 mph 4.6 mph 82 % 0.00 in
08:02 49.4 °F 44.1 °F 30.09 in North 0.9 mph 2.3 mph 82 % 0.00 in
08:07 49.6 °F 43.7 °F 30.09 in North 1.8 mph 3.5 mph 80 % 0.00 in
08:12 49.7 °F 44.1 °F 30.09 in Calm   1.2 mph 81 % 0.00 in
08:17 49.7 °F 43.5 °F 30.10 in North 3.0 mph 4.6 mph 79 % 0.00 in
08:22 49.7 °F 43.5 °F 30.09 in NNW 2.5 mph 3.5 mph 79 % 0.00 in
08:27 49.8 °F 43.5 °F 30.09 in North 0.9 mph 2.3 mph 79 % 0.00 in
08:32 49.9 °F 43.3 °F 30.09 in NW 2.4 mph 3.5 mph 78 % 0.00 in
08:37 50.1 °F 43.2 °F 30.09 in NNW 1.8 mph 3.5 mph 77 % 0.00 in
08:43 50.4 °F 43.1 °F 30.10 in NNW 1.4 mph 3.5 mph 76 % 0.00 in
08:48 50.7 °F 43.1 °F 30.09 in North 2.4 mph 3.5 mph 75 % 0.00 in
08:53 51.2 °F 44.2 °F 30.10 in ENE 1.2 mph 4.0 mph 77 % 0.00 in
09:03 52.2 °F 44.5 °F 30.10 in NNE 0.9 mph 3.5 mph 75 % 0.00 in
09:08 52.9 °F 45.2 °F 30.10 in NNW 1.3 mph 3.5 mph 75 % 0.00 in
09:13 53.2 °F 44.0 °F 30.10 in NW 1.2 mph 3.5 mph 71 % 0.00 in
09:18 53.8 °F 45.0 °F 30.10 in NNW 0.5 mph 3.5 mph 72 % 0.00 in
09:23 54.0 °F 44.4 °F 30.10 in NNW 1.2 mph 3.5 mph 70 % 0.00 in
09:28 54.2 °F 45.4 °F 30.10 in NNW 1.5 mph 3.0 mph 72 % 0.00 in
09:33 54.6 °F 45.0 °F 30.10 in NNE 2.2 mph 3.5 mph 70 % 0.00 in
09:43 55.4 °F 45.0 °F 30.10 in NNE 1.8 mph 3.5 mph 68 % 0.00 in
09:48 56.0 °F 45.2 °F 30.10 in ENE 1.7 mph 3.5 mph 67 % 0.00 in
09:53 56.2 °F 43.3 °F 30.10 in ENE 1.5 mph 4.6 mph 62 % 0.00 in
09:58 56.1 °F 44.1 °F 30.10 in NE 0.9 mph 3.0 mph 64 % 0.00 in
10:03 56.4 °F 43.1 °F 30.10 in ENE 2.5 mph 3.5 mph 61 % 0.00 in
10:08 56.4 °F 44.8 °F 30.10 in East 1.9 mph 3.5 mph 65 % 0.00 in
10:13 56.5 °F 43.6 °F 30.10 in NE 1.0 mph 2.3 mph 62 % 0.00 in
10:18 56.8 °F 45.6 °F 30.10 in NNE 1.4 mph 3.5 mph 66 % 0.00 in
10:23 57.5 °F 45.0 °F 30.09 in ENE 0.5 mph 3.5 mph 63 % 0.00 in
10:28 57.8 °F 44.0 °F 30.10 in ENE 1.4 mph 3.5 mph 60 % 0.00 in
10:33 57.7 °F 43.5 °F 30.09 in East 0.9 mph 4.6 mph 59 % 0.00 in
10:35 57.8 °F 43.1 °F 30.10 in ENE 2.2 mph 4.6 mph 58 % 0.00 in
10:40 57.7 °F 42.1 °F 30.10 in ENE 2.0 mph 3.5 mph 56 % 0.00 in
10:45 57.7 °F 42.6 °F 30.10 in ESE 1.2 mph 3.0 mph 57 % 0.00 in
10:50 58.0 °F 43.3 °F 30.10 in NE 1.4 mph 2.3 mph 58 % 0.00 in
10:55 58.2 °F 44.4 °F 30.09 in ENE 3.1 mph 4.0 mph 60 % 0.00 in
11:00 58.6 °F 46.0 °F 30.10 in ENE 2.0 mph 3.5 mph 63 % 0.00 in
11:05 59.1 °F 43.9 °F 30.09 in ENE 1.8 mph 3.5 mph 57 % 0.00 in
11:10 59.2 °F 44.0 °F 30.10 in ENE 2.1 mph 3.5 mph 57 % 0.00 in
11:15 59.5 °F 42.8 °F 30.09 in NE 2.0 mph 3.5 mph 54 % 0.00 in
11:20 59.8 °F 44.1 °F 30.10 in ENE 0.7 mph 2.3 mph 56 % 0.00 in
11:25 59.9 °F 45.1 °F 30.10 in ENE 1.4 mph 3.5 mph 58 % 0.00 in
11:30 60.2 °F 45.4 °F 30.10 in ENE 3.7 mph 5.0 mph 58 % 0.00 in
11:35 60.1 °F 43.4 °F 30.10 in NNE 3.3 mph 5.8 mph 54 % 0.00 in
11:40 60.4 °F 41.7 °F 30.10 in ENE 1.6 mph 4.6 mph 50 % 0.00 in
11:45 60.4 °F 43.2 °F 30.10 in ENE 2.1 mph 3.5 mph 53 % 0.00 in
11:50 60.3 °F 45.0 °F 30.10 in NE 1.7 mph 3.5 mph 57 % 0.00 in
11:55 60.3 °F 41.6 °F 30.10 in NE 0.9 mph 3.5 mph 50 % 0.00 in
12:00 60.3 °F 45.0 °F 30.09 in NE 0.8 mph 2.3 mph 57 % 0.00 in
12:05 61.5 °F 47.0 °F 30.09 in North 0.3 mph 2.0 mph 59 % 0.00 in
12:11 62.3 °F 44.4 °F 30.09 in NNE 0.8 mph 2.3 mph 52 % 0.00 in
12:16 62.2 °F 45.8 °F 30.09 in NNE 2.6 mph 4.0 mph 55 % 0.00 in
12:21 62.9 °F 46.5 °F 30.08 in NNE 1.7 mph 2.3 mph 55 % 0.00 in
12:26 63.7 °F 46.2 °F 30.09 in NNE 1.4 mph 2.3 mph 53 % 0.00 in
12:31 64.0 °F 43.9 °F 30.08 in North 0.3 mph 2.3 mph 48 % 0.00 in
12:36 63.9 °F 43.8 °F 30.08 in NE 0.4 mph 3.5 mph 48 % 0.00 in
12:41 64.4 °F 45.3 °F 30.09 in NNW 0.6 mph 3.5 mph 50 % 0.00 in
12:46 64.5 °F 44.9 °F 30.09 in NNE 0.6 mph 2.3 mph 49 % 0.00 in
12:51 64.5 °F 43.3 °F 30.09 in West 8.2 mph 9.2 mph 46 % 0.00 in
12:56 63.9 °F 45.9 °F 30.09 in WSW 1.0 mph 3.5 mph 52 % 0.00 in
13:01 64.0 °F 42.2 °F 30.09 in WSW 1.5 mph 3.5 mph 45 % 0.00 in
13:04 63.9 °F 43.3 °F 30.09 in WSW 1.6 mph 4.0 mph 47 % 0.00 in
13:09 63.7 °F 41.9 °F 30.08 in WNW 2.5 mph 3.5 mph 45 % 0.00 in
13:14 63.8 °F 42.6 °F 30.08 in WNW 2.9 mph 6.0 mph 46 % 0.00 in
13:19 63.5 °F 42.3 °F 30.08 in West 0.5 mph 2.3 mph 46 % 0.00 in
13:24 64.0 °F 45.0 °F 30.08 in WSW 1.2 mph 2.3 mph 50 % 0.00 in
13:30 64.5 °F 45.4 °F 30.08 in WNW 1.0 mph 3.0 mph 50 % 0.00 in
13:46 64.8 °F 44.1 °F 30.07 in West 1.0 mph 2.0 mph 47 % 0.00 in
13:51 64.9 °F 43.6 °F 30.07 in SSW 1.2 mph 4.0 mph 46 % 0.00 in
13:56 65.0 °F 41.9 °F 30.07 in SW 1.6 mph 3.5 mph 43 % 0.00 in
14:01 64.9 °F 41.9 °F 30.07 in WSW 1.5 mph 4.6 mph 43 % 0.00 in
14:06 64.9 °F 43.6 °F 30.07 in NW 0.3 mph 2.3 mph 46 % 0.00 in
14:11 65.4 °F 41.7 °F 30.07 in SW 4.0 mph 4.6 mph 42 % 0.00 in
14:16 65.6 °F 43.1 °F 30.06 in SW 0.2 mph 1.2 mph 44 % 0.00 in
14:18 65.7 °F 44.3 °F 30.06 in SW 0.4 mph 2.3 mph 46 % 0.00 in
14:28 65.8 °F 44.4 °F 30.06 in ENE 2.4 mph 4.0 mph 46 % 0.00 in
14:33 65.6 °F 42.5 °F 30.04 in ENE 1.6 mph 4.0 mph 43 % 0.00 in
14:38 65.3 °F 44.5 °F 30.04 in NE 2.2 mph 3.5 mph 47 % 0.00 in
14:39 65.4 °F 44.1 °F 30.04 in NNE 1.7 mph 3.5 mph 46 % 0.00 in
14:44 65.3 °F 42.2 °F 30.04 in ENE 3.3 mph 5.8 mph 43 % 0.00 in
14:49 65.0 °F 42.5 °F 30.04 in NE 2.1 mph 3.5 mph 44 % 0.00 in
14:54 64.8 °F 45.2 °F 30.04 in NNE 1.2 mph 3.5 mph 49 % 0.00 in
14:59 64.7 °F 42.3 °F 30.04 in ENE 3.4 mph 4.6 mph 44 % 0.00 in
15:04 64.7 °F 45.1 °F 30.04 in NE 1.8 mph 5.0 mph 49 % 0.00 in
15:09 64.0 °F 41.0 °F 30.04 in ENE 2.8 mph 3.5 mph 43 % 0.00 in
15:14 63.7 °F 43.6 °F 30.04 in North 1.7 mph 3.5 mph 48 % 0.00 in
15:19 63.6 °F 42.4 °F 30.04 in ENE 2.6 mph 3.5 mph 46 % 0.00 in
15:24 63.5 °F 42.3 °F 30.03 in NE 1.3 mph 3.5 mph 46 % 0.00 in
15:29 63.5 °F 41.8 °F 30.03 in ENE 0.4 mph 2.3 mph 45 % 0.00 in
15:34 63.5 °F 40.6 °F 30.03 in ENE 0.1 mph 1.2 mph 43 % 0.00 in
15:39 63.5 °F 42.9 °F 30.03 in SSW 1.8 mph 4.6 mph 47 % 0.00 in
15:45 63.3 °F 44.3 °F 30.03 in SSE 3.8 mph 5.8 mph 50 % 0.00 in
15:50 62.8 °F 44.9 °F 30.03 in SSE 3.6 mph 10.4 mph 52 % 0.00 in
15:55 62.4 °F 46.0 °F 30.03 in SSE 1.3 mph 4.0 mph 55 % 0.00 in
16:00 62.3 °F 45.4 °F 30.03 in SSW 4.4 mph 6.9 mph 54 % 0.00 in
16:05 62.3 °F 46.4 °F 30.03 in SW 1.5 mph 5.0 mph 56 % 0.00 in
16:10 62.3 °F 45.4 °F 30.03 in SSW 3.4 mph 4.6 mph 54 % 0.00 in
16:15 62.3 °F 45.9 °F 30.03 in WSW 1.5 mph 3.5 mph 55 % 0.00 in
16:20 62.3 °F 45.9 °F 30.03 in SSW 3.1 mph 4.6 mph 55 % 0.00 in
16:25 62.2 °F 45.8 °F 30.03 in SSW 2.2 mph 4.6 mph 55 % 0.00 in
16:30 62.2 °F 45.3 °F 30.03 in SW 1.7 mph 3.5 mph 54 % 0.00 in
16:35 62.2 °F 45.8 °F 30.03 in SSW 1.0 mph 3.5 mph 55 % 0.00 in
16:40 62.3 °F 45.9 °F 30.03 in SW 2.5 mph 5.0 mph 55 % 0.00 in
16:45 62.3 °F 45.9 °F 30.03 in SSW 2.2 mph 5.8 mph 55 % 0.00 in
16:50 62.2 °F 45.3 °F 30.03 in WSW 4.3 mph 6.9 mph 54 % 0.00 in
16:55 62.2 °F 45.8 °F 30.03 in SW 1.4 mph 3.5 mph 55 % 0.00 in
17:00 62.1 °F 45.7 °F 30.04 in SSW 2.8 mph 4.0 mph 55 % 0.00 in
17:01 62.1 °F 45.7 °F 30.04 in SSE 1.9 mph 3.5 mph 55 % 0.00 in
17:06 61.8 °F 45.0 °F 30.04 in SSW 3.9 mph 8.1 mph 54 % 0.00 in
17:11 61.5 °F 44.7 °F 30.04 in SSW 3.7 mph 5.8 mph 54 % 0.00 in
17:16 61.3 °F 45.0 °F 30.04 in South 1.1 mph 6.9 mph 55 % 0.00 in
17:21 61.3 °F 45.0 °F 30.04 in SE 2.6 mph 4.6 mph 55 % 0.00 in
17:26 61.1 °F 44.8 °F 30.04 in SSE 1.1 mph 4.6 mph 55 % 0.00 in
17:31 60.9 °F 44.6 °F 30.04 in SE 0.8 mph 6.9 mph 55 % 0.00 in
17:36 60.4 °F 44.6 °F 30.04 in SSE 4.5 mph 11.0 mph 56 % 0.00 in
17:41 59.8 °F 43.6 °F 30.04 in South 2.8 mph 4.0 mph 55 % 0.00 in
17:46 59.5 °F 43.8 °F 30.05 in SSW 2.2 mph 4.6 mph 56 % 0.00 in
17:51 59.4 °F 44.2 °F 30.05 in South 2.4 mph 5.8 mph 57 % 0.00 in
17:56 59.2 °F 44.0 °F 30.05 in SSW 5.8 mph 6.9 mph 57 % 0.00 in
18:01 58.9 °F 43.7 °F 30.05 in SSW 3.3 mph 8.1 mph 57 % 0.00 in
18:06 58.6 °F 43.9 °F 30.05 in South 3.7 mph 5.8 mph 58 % 0.00 in
18:11 58.2 °F 43.5 °F 30.05 in South 0.8 mph 3.0 mph 58 % 0.00 in
18:16 58.0 °F 44.2 °F 30.05 in South 3.8 mph 8.1 mph 60 % 0.00 in
18:21 57.7 °F 43.9 °F 30.04 in South 2.0 mph 5.8 mph 60 % 0.00 in
18:26 57.2 °F 43.9 °F 30.05 in SE 4.2 mph 7.0 mph 61 % 0.00 in
18:31 56.7 °F 43.4 °F 30.05 in SE 2.8 mph 5.8 mph 61 % 0.00 in
18:36 56.3 °F 43.4 °F 30.05 in SSW 3.3 mph 8.0 mph 62 % 0.00 in
18:41 55.9 °F 43.1 °F 30.05 in SSW 4.6 mph 6.9 mph 62 % 0.00 in
18:46 55.4 °F 43.4 °F 30.05 in South 3.0 mph 5.8 mph 64 % 0.00 in
18:51 55.0 °F 43.0 °F 30.05 in SSW 2.9 mph 8.1 mph 64 % 0.00 in
18:56 54.6 °F 42.7 °F 30.05 in SSW 5.5 mph 11.5 mph 64 % 0.00 in
19:01 54.2 °F 42.7 °F 30.05 in South 0.9 mph 4.6 mph 65 % 0.00 in
19:06 53.9 °F 42.4 °F 30.06 in South 2.4 mph 10.4 mph 65 % 0.00 in
19:11 53.6 °F 42.1 °F 30.05 in South 3.4 mph 5.0 mph 65 % 0.00 in
19:16 53.3 °F 42.2 °F 30.05 in South 2.5 mph 5.8 mph 66 % 0.00 in
19:21 53.1 °F 41.6 °F 30.06 in SW 1.0 mph 4.0 mph 65 % 0.00 in
19:27 52.9 °F 41.8 °F 30.06 in WSW 0.6 mph 2.3 mph 66 % 0.00 in
19:32 52.6 °F 41.6 °F 30.06 in South 2.2 mph 6.9 mph 66 % 0.00 in
19:37 52.4 °F 41.8 °F 30.06 in SSW 2.1 mph 3.5 mph 67 % 0.00 in
19:38 52.3 °F 41.7 °F 30.06 in SSW 2.5 mph 4.6 mph 67 % 0.00 in
19:43 52.1 °F 41.5 °F 30.06 in SSW 1.2 mph 3.5 mph 67 % 0.00 in
19:48 51.9 °F 41.7 °F 30.07 in SW 2.2 mph 4.0 mph 68 % 0.00 in
19:53 51.6 °F 41.4 °F 30.07 in South 1.1 mph 5.8 mph 68 % 0.00 in
19:58 51.3 °F 41.5 °F 30.07 in SSW 3.3 mph 4.6 mph 69 % 0.00 in
20:03 51.1 °F 41.3 °F 30.07 in South 1.1 mph 6.9 mph 69 % 0.00 in
20:08 50.8 °F 41.0 °F 30.07 in SW 2.8 mph 6.0 mph 69 % 0.00 in
20:13 50.6 °F 41.2 °F 30.07 in SSE 2.4 mph 4.0 mph 70 % 0.00 in
20:18 50.5 °F 41.1 °F 30.07 in South 4.9 mph 9.2 mph 70 % 0.00 in
20:23 50.3 °F 40.9 °F 30.07 in SSW 4.6 mph 6.9 mph 70 % 0.00 in
20:28 50.1 °F 41.1 °F 30.07 in SSW 3.2 mph 5.8 mph 71 % 0.00 in
20:33 50.0 °F 41.3 °F 30.07 in South 3.0 mph 5.8 mph 72 % 0.00 in
20:38 49.9 °F 41.2 °F 30.07 in South 2.5 mph 6.9 mph 72 % 0.00 in
20:43 49.7 °F 41.4 °F 30.07 in SSW 1.2 mph 5.8 mph 73 % 0.00 in
20:48 49.6 °F 41.3 °F 30.08 in South 1.4 mph 4.0 mph 73 % 0.00 in
20:49 49.5 °F 41.2 °F 30.08 in WSW 2.1 mph 4.6 mph 73 % 0.00 in
20:54 49.5 °F 41.2 °F 30.08 in SSW 2.5 mph 6.9 mph 73 % 0.00 in
20:59 49.3 °F 41.4 °F 30.08 in SSW 3.0 mph 5.8 mph 74 % 0.00 in
21:04 49.2 °F 41.3 °F 30.08 in SSW 0.9 mph 3.5 mph 74 % 0.00 in
21:07 49.2 °F 41.3 °F 30.08 in SSW 3.3 mph 6.9 mph 74 % 0.00 in
21:12 49.2 °F 41.3 °F 30.08 in SSW 2.7 mph 6.9 mph 74 % 0.00 in
21:17 49.1 °F 41.5 °F 30.08 in SSW 0.7 mph 4.6 mph 75 % 0.00 in
21:22 49.0 °F 41.4 °F 30.09 in SW 3.1 mph 5.8 mph 75 % 0.00 in
21:27 49.0 °F 41.8 °F 30.09 in SW 3.1 mph 4.6 mph 76 % 0.00 in
21:32 48.9 °F 42.0 °F 30.09 in SW 3.1 mph 9.2 mph 77 % 0.00 in
21:37 48.8 °F 41.9 °F 30.10 in WSW 2.5 mph 5.0 mph 77 % 0.00 in
21:42 48.7 °F 41.8 °F 30.10 in WSW 1.1 mph 3.5 mph 77 % 0.00 in
21:47 48.7 °F 42.1 °F 30.10 in West 2.4 mph 3.5 mph 78 % 0.00 in
21:52 48.6 °F 42.0 °F 30.10 in WSW 2.5 mph 6.0 mph 78 % 0.00 in
21:57 48.6 °F 42.4 °F 30.10 in WSW 1.4 mph 3.5 mph 79 % 0.00 in
22:02 48.5 °F 42.3 °F 30.10 in Calm   1.2 mph 79 % 0.00 in
22:07 48.5 °F 42.3 °F 30.10 in Calm     79 % 0.00 in
22:12 48.4 °F 42.2 °F 30.09 in WSW 1.6 mph 3.5 mph 79 % 0.00 in
22:17 48.4 °F 42.5 °F 30.10 in WSW 1.3 mph 2.3 mph 80 % 0.00 in
22:22 48.3 °F 42.4 °F 30.10 in Calm   3.5 mph 80 % 0.00 in
22:27 48.3 °F 42.4 °F 30.10 in WSW 0.9 mph 2.3 mph 80 % 0.00 in
22:32 48.2 °F 42.3 °F 30.10 in WSW 0.6 mph 2.3 mph 80 % 0.00 in
22:37 48.1 °F 42.5 °F 30.10 in WSW 0.1 mph 1.2 mph 81 % 0.00 in
22:42 48.1 °F 42.5 °F 30.10 in WSW 0.8 mph 3.0 mph 81 % 0.00 in
22:48 47.9 °F 42.3 °F 30.11 in WSW 0.4 mph 2.3 mph 81 % 0.00 in
22:53 47.9 °F 42.7 °F 30.11 in SW 0.8 mph 2.3 mph 82 % 0.00 in
22:58 47.8 °F 42.9 °F 30.11 in SW 1.3 mph 3.5 mph 83 % 0.00 in
23:03 47.7 °F 42.8 °F 30.11 in SW 0.9 mph 2.3 mph 83 % 0.00 in
23:08 47.6 °F 42.7 °F 30.11 in WSW 3.1 mph 3.5 mph 83 % 0.00 in
23:13 47.6 °F 42.7 °F 30.10 in Calm   3.5 mph 83 % 0.00 in
23:18 47.5 °F 42.6 °F 30.11 in WSW 0.8 mph 2.3 mph 83 % 0.00 in
23:23 47.5 °F 42.9 °F 30.11 in Calm   1.2 mph 84 % 0.00 in
23:28 47.4 °F 42.8 °F 30.11 in Calm   2.3 mph 84 % 0.00 in
23:33 47.4 °F 42.8 °F 30.11 in Calm     84 % 0.00 in
23:38 47.3 °F 43.0 °F 30.10 in Calm     85 % 0.00 in
23:48 47.2 °F 42.6 °F 30.10 in Calm     84 % 0.00 in
23:53 47.0 °F 42.4 °F 30.10 in Calm     84 % 0.00 in
23:58 47.0 °F 42.7 °F 30.10 in Calm     85 % 0.00 in
Crab Meadow Weather
Compliments of Weather Underground - 3 mb

Script developed by  Jim McMurry - jmcmurry@mwt.net Adapted for the template by  Wim van der Kuil - Leuven-Template.eu

Hurricanes: In one day a hurricane can release enough energy to supply all of the nation's electrical needs for about six months.